Location: Julian California
(33.0790°N, 116.6010°W)
Time: 08:10:47
(UTC-07:00)

Cosmos 1812 Rocket - Pass Details

Date: 14 June 2018
Orbit: 604 x 633 km, 82.5° (Epoch: 20 June)

Event Time Altitude Azimuth Distance (km) Brightness Sun altitude
Rises 21:50:20 0° 353° (N) 2,861 7.9 -19.7°
Reaches altitude 10° 21:52:33 10° 352° (N) 1,955 6.9 -20.0°
Maximum altitude 21:56:52 85° 265° (W) 614 3.4 -20.6°
Enters shadow 21:58:03 48° 181° (S) 796 3.8 -20.7°
